Location: Peebles
(55.6412°N, 3.1714°W)
Time: 09:57:58
(UTC+01:00)

OV1 4 Rocket - Visible Passes

Search period start: 26 June 2022 00:00
Search period end: 06 July 2022 00:00
Orbit: 878 x 997 km, 144.5° (Epoch: 25 June)

Date Brightness Start Highest point End Pass type
(mag) Time Alt. Az. Time Alt. Az. Time Alt. Az.
27 Jun 8.7 22:57:24 10° SSE 22:59:00 11° S 23:00:37 10° SSW visible
28 Jun 8.7 23:08:26 10° SSE 23:10:12 11° S 23:11:57 10° SSW visible
29 Jun 8.7 23:19:30 10° SSE 23:21:23 12° S 23:23:15 10° SSW visible
30 Jun 8.7 23:30:34 10° SSE 23:32:34 12° S 23:34:33 10° SSW visible
01 Jul 8.6 23:42:00 11° SSE 23:43:45 12° S 23:45:50 10° SSW visible
02 Jul 8.6 23:53:42 11° SSE 23:54:56 12° S 23:57:05 10° SSW visible
04 Jul 8.6 00:05:29 12° S 00:06:07 12° S 00:08:19 10° SSW visible
05 Jul 8.6 00:17:22 12° S 00:17:22 12° S 00:19:33 10° SSW visible
